Regional Weather Roundup
Issued by NWS

Home | Current Version | Previous Version | Text Only | Print | Product List | Glossary On
Versions: 1 2 3 4 5 6 7 8 9 10 11 12 13 14 15 16 17 18 19 20 21 22 23 24 25 26 27 28 29 30 31 32 33 34 35 36 37 38 39 40 41 42 43 44 45 46 47 48 49 50
000
ASUS43 KTOP 270708
RWRKS

WEATHER ROUNDUP FOR KANSAS
NATIONAL WEATHER SERVICE GOODLAND KS
100 AM CST SAT DEC 27 2014

NOTE:  "FAIR" INDICATES FEW OR NO CLOUDS BELOW 12,000 FEET WITH NO
SIGNIFICANT WEATHER AND/OR OBSTRUCTIONS TO VISIBILITY.

KSZ001>006-013>018-027>032-041>047-270800-
NORTHWEST KANSAS

CITY           SKY/WX    TMP DP  RH WIND       PRES   REMARKS
GOODLAND       CLEAR     10   7  87 NW10      30.14S WCI  -4
HAYS           MOCLDY    19  10  68 NW8       30.19R
HILL CITY      CLEAR     17  13  84 NW12      30.18R WCI   4
RUSSELL        CLEAR     20  17  88 NW13      30.17R WCI   7
$$

KSZ061>065-074>080-084>089-270800-
SOUTHWEST KANSAS

CITY           SKY/WX    TMP DP  RH WIND       PRES   REMARKS
DODGE CITY     PTCLDY    18  14  84 NW10      30.17S WCI   6
ELKHART          N/A     15  12  88 NW2         N/A
GARDEN CITY    CLEAR     14  12  92 N8        30.16S
GREAT BEND     PTCLDY    23  18  80 NW12      30.19R WCI  12
LIBERAL        CLEAR     19  14  79 NW9       30.18F
PRATT          MOCLDY    27  23  86 NW12      30.17S WCI  16
$$

KSZ066>073-081>083-090>101-270800-
SOUTHEAST KANSAS

CITY           SKY/WX    TMP DP  RH WIND       PRES   REMARKS
CHANUTE        CLOUDY    37  34  89 W13       30.09R WCI  29
COFFEYVILLE    CLOUDY    40  35  83 NW14      30.11R WCI  32
HUTCHINSON     CLOUDY    30  24  78 NW9       30.17R
MEDICINE LODGE   N/A     29  25  85 N8        30.16F
NEWTON         CLOUDY    30  23  74 NW14      30.14S WCI  20
PARSONS        CLOUDY    39  35  86 W13       30.11R WCI  31
WICHITA INTL   MOCLDY    33  27  78 NW15      30.16R WCI  23
WICHITA JABRA  CLOUDY    32  27  81 NW12      30.14R WCI  23
WICHITA MCCONL PTCLDY    33  27  79 NW13      30.14S WCI  23
WINFIELD       CLOUDY    34  28  79 NW14      30.15S WCI  25
$$

KSZ007>012-019>026-033>040-048>060-102>105-270800-
NORTHEAST KANSAS

CITY           SKY/WX    TMP DP  RH WIND       PRES   REMARKS
CONCORDIA      PTCLDY    24  21  88 NW12      30.12S WCI  13
EMPORIA        CLOUDY    32  31  96 W12G21    30.09R WCI  23
LAWRENCE       CLOUDY    35  33  92 W15       30.06F WCI  25
MANHATTAN      CLOUDY    31  27  85 W10G17    30.12R WCI  22
MARYSVILLE     CLOUDY    28  27  93 NW12      30.08R WCI  18
OLATHE IND     MIX PCPN  36  34  92 W14       30.04F FOG     WCI  27
OLATHE EXE     CLOUDY    37  34  89 W8        30.03R
SALINA         PTCLDY    29  24  82 NW14      30.16R WCI  18
TOPEKA BILLARD CLOUDY    35  33  92 W13G22    30.08R WCI  26
TOPEKA FORBES  CLOUDY    35  31  85 W16       30.07R WCI  25
$$


USA.gov is the U.S. government's official web portal to all federal, state and local government web resources and services.